Back to catalog

STARLINK-30230

AliveCommunicationsVLEO
NORAD 57503·PAYLOAD·🇺🇸 United States

Launched Aug 7, 2023 from Cape Canaveral Space Force Station

Loading…

Next Passes (next 24 hours)

TLE

FreshSource: CelesTrak SupGP

Epoch: Sep 14, 2026, 13:43 UTC

1 57503C 23113J   26257.57201389 -.00012553  00000+0 -45476-3 0  2570
2 57503  43.0021  29.3101 0001560 268.4872  57.4401 15.27578898    19

Track STARLINK-30230 in real time with AllMySat

Download on the App Store